Weather History for Hoquiam, WA

Change the Weather History Date:

Saturday, February 23, 2013

  Actual Average Record
Temperature  
Mean Temperature 42 °F 44 °F  
Max Temperature 46 °F 50 °F 64 °F (2005)
Min Temperature 39 °F 38 °F 29 °F (1960)
Degree Days  
Heating Degree Days 22 21  
Month to date heating degree days 493  
Cooling Degree Days 0 0  
Month to date cooling degree days 0  
Year to date cooling degree days 0  
Moisture  
Dew Point 36 °F    
Average Humidity 79    
Maximum Humidity 93    
Minimum Humidity 63    
Precipitation  
Precipitation 0.20 in 0.25 in 2.76 in (1986)
Month to date precipitation 6.00  
Year to date precipitation 16.33  
Sea Level Pressure  
Sea Level Pressure 30.22 in    
Wind  
Wind Speed 13 mph (West)    
Max Wind Speed 23 mph    
Max Gust Speed 34 mph    
Visibility 9 miles    
Events Rain    
T = Trace of Precipitation, MM = Missing Value Source: NWS Daily Summary

Daily Weather History Graph

Daily Weather History Graph

Search for Another Location

Airport:

Trip Planner

Search our weather history database for the weather conditions in past years. The results will help you decide how hot, cold, wet, or windy it might be!

Date:

Astronomy

Feb. 23, 2013 Rise Set
Actual Time 7:05 AM PST 5:52 PM PST
Civil Twilight 6:35 AM PST 6:23 PM PST
Nautical Twilight 5:59 AM PST 6:59 PM PST
Astronomical Twilight 5:24 AM PST 7:34 PM PST
Moon 4:05 PM PST (2/23) 5:36 AM PST (2/23)
Length of Visible Light 11h 48m
Length of Day
10h 47m
Waxing Gibbous, 96% of the Moon is Illuminated
Feb 23
Waxing Gibbous
Feb 25
Full
Mar 4
Last Quarter
Mar 11
New
Mar 19
First Quarter

Hourly Weather History & Observations

Time (PST) Temp. Windchill Dew Point Humidity Pressure Visibility Wind Dir Wind Speed Gust Speed Precip Events Conditions
12:53 AM 43.0 °F 35.4 °F 37.9 °F 82% 29.99 in 8.0 mi West 16.1 mph 24.2 mph 0.01 in Rain Light Rain
1:00 AM 42.8 °F 34.3 °F 37.4 °F 81% 29.98 in 7.0 mi West 19.6 mph 27.6 mph 0.01 in Rain Light Rain
1:08 AM 42.8 °F 33.8 °F 37.4 °F 81% 29.99 in 8.0 mi West 21.9 mph 28.8 mph 0.02 in Rain Light Rain
1:29 AM 42.8 °F 35.1 °F 37.4 °F 81% 29.99 in 10.0 mi WSW 16.1 mph - 0.03 in   Overcast
1:53 AM 43.0 °F 35.1 °F 37.9 °F 82% 30.01 in 10.0 mi West 17.3 mph - 0.03 in   Overcast
2:22 AM 44.6 °F 35.9 °F 37.4 °F 76% 30.00 in 10.0 mi West 23.0 mph 29.9 mph 0.00 in   Mostly Cloudy
2:53 AM 42.1 °F 35.2 °F 37.0 °F 82% 30.03 in 8.0 mi West 12.7 mph 31.1 mph 0.00 in Rain Light Rain
3:11 AM 39.2 °F 31.6 °F 35.6 °F 87% 30.02 in 4.0 mi West 12.7 mph 25.3 mph 0.05 in Rain Light Rain
3:38 AM 42.8 °F 36.6 °F 37.4 °F 81% 30.03 in 10.0 mi West 11.5 mph 19.6 mph 0.05 in   Overcast
3:53 AM 42.1 °F 33.6 °F 37.0 °F 82% 30.05 in 8.0 mi West 18.4 mph 25.3 mph 0.06 in Rain Light Rain
4:53 AM 43.0 °F 33.8 °F 37.0 °F 80% 30.07 in 7.0 mi West 23.0 mph 34.5 mph 0.00 in Rain Light Rain
5:39 AM 42.8 °F 35.8 °F 35.6 °F 76% 30.08 in 10.0 mi West 13.8 mph 28.8 mph 0.01 in   Mostly Cloudy
5:50 AM 42.8 °F 36.2 °F 35.6 °F 76% 30.09 in 10.0 mi West 12.7 mph 20.7 mph 0.01 in   Mostly Cloudy
5:53 AM 43.0 °F 37.2 °F 35.1 °F 74% 30.10 in 10.0 mi West 10.4 mph 20.7 mph 0.01 in   Mostly Cloudy
6:53 AM 41.0 °F 35.8 °F 35.1 °F 79% 30.13 in 10.0 mi WNW 8.1 mph - 0.01 in   Overcast
7:53 AM 41.0 °F 39.0 °F 36.0 °F 82% 30.17 in 9.0 mi WSW 3.5 mph - 0.00 in   Mostly Cloudy
8:53 AM 44.1 °F 38.1 °F 35.1 °F 71% 30.20 in 10.0 mi West 11.5 mph - 0.00 in   Mostly Cloudy
9:53 AM 45.0 °F 37.9 °F 35.1 °F 68% 30.23 in 10.0 mi West 16.1 mph 24.2 mph N/A   Mostly Cloudy
10:53 AM 42.1 °F 36.1 °F 35.1 °F 76% 30.27 in 10.0 mi West 10.4 mph - 0.01 in   Mostly Cloudy
11:53 AM 45.0 °F 40.1 °F 37.0 °F 74% 30.29 in 10.0 mi WNW 9.2 mph 17.3 mph N/A   Mostly Cloudy
12:53 PM 44.1 °F 37.7 °F 37.0 °F 76% 30.29 in 10.0 mi West 12.7 mph - 0.03 in   Scattered Clouds
1:53 PM 46.9 °F - 35.1 °F 63% 30.30 in 10.0 mi West 17.3 mph 26.5 mph N/A   Mostly Cloudy
2:53 PM 42.1 °F 34.5 °F 36.0 °F 79% 30.34 in 4.0 mi NW 15.0 mph 26.5 mph 0.01 in Rain Light Rain
3:00 PM 44.6 °F 39.7 °F 35.6 °F 71% 30.32 in 5.0 mi WNW 9.2 mph 24.2 mph 0.00 in Rain Light Rain
3:53 PM 46.9 °F - 36.0 °F 66% 30.33 in 10.0 mi West 13.8 mph - 0.00 in   Mostly Cloudy
4:53 PM 46.0 °F 39.9 °F 34.0 °F 63% 30.35 in 10.0 mi West 13.8 mph - N/A   Partly Cloudy
5:53 PM 45.0 °F 39.7 °F 35.1 °F 68% 30.36 in 10.0 mi West 10.4 mph - N/A   Scattered Clouds
6:53 PM 42.8 °F 41.1 °F 35.6 °F 76% 30.36 in 10.0 mi WNW 3.5 mph - N/A   Scattered Clouds
7:53 PM 42.8 °F 39.3 °F 35.6 °F 76% 30.38 in 8.0 mi NW 5.8 mph - N/A Rain Light Rain
8:00 PM 41.0 °F - 35.6 °F 81% 30.38 in 10.0 mi Calm Calm - 0.00 in   Overcast
8:26 PM 41.0 °F 36.4 °F 37.4 °F 87% 30.38 in 10.0 mi NW 6.9 mph - 0.00 in   Overcast
8:43 PM 41.0 °F - 37.4 °F 87% 30.38 in 10.0 mi Calm Calm - 0.00 in   Mostly Cloudy
8:53 PM 41.0 °F 39.0 °F 37.0 °F 86% 30.40 in 10.0 mi WSW 3.5 mph - 0.00 in   Mostly Cloudy
9:07 PM 41.0 °F 35.8 °F 37.4 °F 87% 30.39 in 5.0 mi WSW 8.1 mph - 0.02 in Rain Light Rain
9:50 PM 41.0 °F 39.0 °F 37.4 °F 87% 30.39 in 10.0 mi NW 3.5 mph - 0.03 in Rain Light Rain
9:53 PM 41.0 °F 39.0 °F 37.9 °F 89% 30.40 in 10.0 mi WNW 3.5 mph - 0.03 in   Overcast
10:53 PM 39.9 °F - 37.9 °F 93% 30.40 in 10.0 mi Calm Calm - N/A   Overcast
11:53 PM 39.9 °F - 37.9 °F 93% 30.41 in 8.0 mi Calm Calm - N/A   Overcast